K3RTA Weather Reports


time (UTC)temp
F
wind
direction
speed
knots
gust
knots
rain 1hr
in
rain 24hr
in
rain mn
in
humidity
%
barometer
mb
20260510225004 67 268 0.0 0.0 0.02 0.02 0.02 83 1013.3
20260510222004 68 114 0.0 0.0 0.00 0.00 0.00 79 1011.6
20260510221004 68 123 0.0 0.0 0.00 0.00 0.00 79 1011.3
20260510220005 68 123 0.0 0.0 0.00 0.00 0.00 78 1011.3
20260510215004 69 123 0.0 0.0 0.00 0.00 0.00 77 1011.4
20260510214004 69 123 0.0 0.0 0.00 0.00 0.00 76 1011.3
20260510212004 71 60 0.0 0.9 0.00 0.00 0.00 69 1011.5
20260510211004 74 329 0.0 0.0 0.00 0.00 0.00 61 1011.5
20260510210004 74 309 0.0 0.0 0.00 0.00 0.00 58 1011.1
20260510205004 75 302 0.0 0.0 0.00 0.00 0.00 57 1010.6
20260510203004 80 123 0.0 0.0 0.00 0.00 0.00 44 1010.3
20260510202004 80 251 0.0 0.0 0.00 0.00 0.00 45 1010.4
20260510201004 79 195 0.0 0.9 0.00 0.00 0.00 44 1010.4
20260510200004 80 215 0.0 0.9 0.00 0.00 0.00 43 1010.4
20260510195004 80 187 0.0 0.0 0.00 0.00 0.00 43 1010.5
20260510194004 79 244 0.0 2.6 0.00 0.00 0.00 47 1010.8
20260510193004 78 257 0.0 0.9 0.00 0.00 0.00 47 1010.9
20260510191004 77 289 0.0 1.7 0.00 0.00 0.00 50 1011.1
20260510190004 80 252 0.0 0.0 0.00 0.00 0.00 46 1011.2
20260510185004 81 130 0.0 1.7 0.00 0.00 0.00 43 1011.1
20260510184004 82 274 0.0 1.7 0.00 0.00 0.00 42 1011.0
20260510183004 82 288 0.0 0.9 0.00 0.00 0.00 43 1011.0
20260510182004 82 285 0.0 1.7 0.00 0.00 0.00 42 1011.0
20260510181004 81 155 0.0 0.0 0.00 0.00 0.00 42 1011.0
20260510180004 80 280 0.0 1.7 0.00 0.00 0.00 42 1011.2
20260510175004 80 229 0.0 0.0 0.00 0.00 0.00 43 1011.3
20260510173004 80 209 0.0 0.0 0.00 0.00 0.00 45 1011.3
20260510172004 79 313 0.0 1.7 0.00 0.00 0.00 45 1011.2
20260510171004 79 257 0.0 0.9 0.00 0.00 0.00 44 1011.3
20260510170004 79 135 0.0 0.9 0.00 0.00 0.00 46 1011.4
20260510165003 78 141 0.0 0.9 0.00 0.00 0.00 49 1011.4
20260510164004 78 322 0.0 0.0 0.00 0.00 0.00 49 1011.3
20260510163004 79 281 0.0 0.0 0.00 0.00 0.00 50 1011.3
20260510162004 77 306 0.0 0.0 0.00 0.00 0.00 51 1011.3
20260510161004 76 299 0.0 0.9 0.00 0.00 0.00 52 1011.5
20260510160004 76 250 0.0 0.9 0.00 0.00 0.00 53 1011.5
20260510155004 76 305 0.0 0.9 0.00 0.00 0.00 52 1011.5
20260510154004 75 285 0.0 1.7 0.00 0.00 0.00 52 1011.6
20260510153004 75 255 0.0 0.0 0.00 0.00 0.00 57 1011.6
20260510152004 74 191 0.0 2.6 0.00 0.00 0.00 59 1011.7
20260510151003 74 291 0.0 0.0 0.00 0.00 0.00 58 1011.7
20260510150004 73 276 0.0 0.0 0.00 0.00 0.00 59 1011.4
20260510145004 73 233 0.0 0.0 0.00 0.00 0.00 59 1011.4
20260510144004 71 290 0.0 0.0 0.00 0.00 0.00 63 1011.6
20260510143004 71 246 0.0 0.0 0.00 0.00 0.00 64 1011.5
20260510142004 69 284 0.0 0.0 0.00 0.00 0.00 69 1011.8
20260510141004 68 284 0.0 0.0 0.00 0.00 0.00 70 1011.8
20260510140005 68 269 0.0 0.0 0.00 0.00 0.00 72 1011.8
20260510134004 65 78 0.0 0.0 0.00 0.00 0.00 76 1011.7
20260510133004 63 200 0.0 0.0 0.00 0.00 0.00 79 1011.9
20260510131004 60 281 0.0 0.0 0.00 0.00 0.00 84 1011.9
20260510130004 59 31 0.0 0.0 0.00 0.00 0.00 85 1011.9
20260510125004 57 245 0.0 0.0 0.00 0.00 0.00 87 1011.9
20260510123004 56 245 0.0 0.0 0.00 0.00 0.00 88 1011.9
20260510122004 55 255 0.0 0.0 0.00 0.00 0.00 88 1011.8
20260510121003 55 130 0.0 0.0 0.00 0.00 0.00 87 1011.5
20260510120004 54 146 0.0 0.0 0.00 0.00 0.00 87 1011.5
20260510115004 53 138 0.0 0.0 0.00 0.00 0.00 87 1011.3
20260510114004 53 101 0.0 0.0 0.00 0.00 0.00 87 1011.3
20260510113005 52 6 0.0 0.0 0.00 0.00 0.00 87 1011.3
20260510112004 52 297 0.0 0.0 0.00 0.00 0.00 87 1011.2
20260510111004 51 290 0.0 0.0 0.00 0.00 0.00 87 1010.9
20260510110005 51 290 0.0 0.0 0.00 0.00 0.00 87 1010.8
20260510105003 50 290 0.0 0.0 0.00 0.00 0.00 87 1010.7
20260510104004 50 290 0.0 0.0 0.00 0.00 0.00 87 1010.6
20260510103004 50 290 0.0 0.0 0.00 0.00 0.00 87 1010.3
20260510102004 50 290 0.0 0.0 0.00 0.00 0.00 87 1010.2
20260510100004 50 290 0.0 0.0 0.00 0.00 0.00 88 1010.2
20260510095004 50 290 0.0 0.0 0.00 0.00 0.00 88 1010.1
20260510094004 51 289 0.0 0.0 0.00 0.00 0.00 87 1010.0
20260510093004 51 288 0.0 0.0 0.00 0.00 0.00 87 1010.0
20260510092004 51 134 0.0 0.0 0.00 0.00 0.00 87 1009.8
20260510091004 51 282 0.0 0.0 0.00 0.00 0.00 87 1009.9
20260510090004 51 295 0.0 0.0 0.00 0.00 0.00 87 1010.0
20260510085004 51 83 0.0 0.0 0.00 0.00 0.00 87 1009.6
20260510084004 50 127 0.0 0.0 0.00 0.00 0.00 87 1009.5
20260510083004 49 127 0.0 0.0 0.00 0.00 0.00 87 1009.4
20260510081004 50 127 0.0 0.0 0.00 0.00 0.00 88 1009.2
20260510080004 50 127 0.0 0.0 0.00 0.00 0.00 87 1009.2
20260510075004 50 127 0.0 0.0 0.00 0.00 0.00 87 1009.2
20260510074004 50 127 0.0 0.0 0.00 0.00 0.00 87 1009.2
20260510073004 50 128 0.0 0.0 0.00 0.00 0.00 87 1009.1
20260510072004 50 128 0.0 0.0 0.00 0.00 0.00 88 1009.0
20260510071004 50 128 0.0 0.0 0.00 0.00 0.00 88 1008.7
20260510070005 50 128 0.0 0.0 0.00 0.00 0.00 88 1008.6
20260510065004 50 128 0.0 0.0 0.00 0.00 0.00 88 1008.6
20260510064004 50 128 0.0 0.0 0.00 0.00 0.00 88 1008.6
20260510061004 51 128 0.0 0.0 0.00 0.00 0.00 88 1008.9
20260510060004 51 128 0.0 0.0 0.00 0.00 0.00 87 1008.9
20260510055004 51 128 0.0 0.0 0.00 0.00 0.00 87 1009.0
20260510054003 51 128 0.0 0.0 0.00 0.00 0.00 88 1009.0
20260510053004 51 128 0.0 0.0 0.00 0.00 0.00 88 1009.0
20260510052004 51 128 0.0 0.0 0.00 0.00 0.00 88 1009.1
20260510051004 51 128 0.0 0.0 0.00 0.00 0.00 88 1009.2
20260510050006 52 128 0.0 0.0 0.00 0.00 0.00 88 1009.2
20260510045007 52 128 0.0 0.0 0.00 0.00 0.00 88 1009.2
20260510044007 52 128 0.0 0.0 0.00 0.00 0.00 88 1009.3
20260510043006 52 128 0.0 0.0 0.00 0.00 0.00 88 1009.4
20260510042007 52 128 0.0 0.0 0.00 0.00 0.00 88 1009.3
20260510041007 52 128 0.0 0.0 0.00 0.00 0.00 88 1009.3
20260510035007 53 128 0.0 0.0 0.00 0.00 0.00 88 1009.4
20260510034007 53 128 0.0 0.0 0.00 0.00 0.00 88 1009.3
20260510033006 53 128 0.0 6.1 0.00 0.00 0.00 88 1009.2
20260510032007 53 128 0.0 0.0 0.00 0.00 0.00 88 1009.2
20260510031007 53 128 0.0 0.9 0.00 0.00 0.00 88 1009.1
20260510030006 53 128 0.0 4.3 0.00 0.00 0.00 88 1009.0
20260510025006 53 128 0.0 1.7 0.00 0.00 0.00 88 1008.9
20260510024007 53 128 0.0 17.4 0.00 0.00 0.00 88 1009.0
20260510023007 54 128 0.0 54.7 0.00 0.00 0.00 88 1008.9
20260510022006 54 128 25.2 105.1 0.00 0.00 0.00 88 1008.9
20260510021007 54 128 0.0 0.9 0.00 0.00 0.00 87 1009.0
20260510020007 54 128 0.0 0.9 0.00 0.00 0.00 87 1008.9
20260510015007 55 128 0.0 0.0 0.00 0.00 0.00 87 1008.8
20260510014006 55 128 0.0 2.6 0.00 0.00 0.00 86 1008.7
20260510013007 55 128 0.0 2.6 0.00 0.00 0.00 86 1008.6
20260510012007 56 128 0.9 2.6 0.00 0.00 0.00 85 1008.5
20260510011006 56 128 0.0 0.0 0.00 0.00 0.00 85 1008.5
20260510010006 57 128 0.0 0.0 0.00 0.00 0.00 84 1008.4
20260510004007 58 128 0.0 0.0 0.00 0.00 0.00 82 1008.4
20260510002006 59 128 0.0 0.0 0.00 0.00 0.00 79 1008.3
20260510001007 60 128 0.0 0.0 0.00 0.00 0.00 78 1008.3
20260510000007 60 128 0.0 0.0 0.00 0.00 0.00 77 1008.4
20260509235007 61 128 0.0 0.0 0.00 0.00 0.00 76 1008.3
20260509234006 62 80 0.0 0.0 0.00 0.00 0.00 75 1008.2
20260509232007 63 75 0.0 0.0 0.00 0.00 0.00 73 1008.1
20260509231006 63 66 0.0 0.0 0.00 0.00 0.00 73 1008.1